Regional Weather Roundup
Issued by NWS

Home | Current Version | Previous Version | Text Only | Print | Product List | Glossary Off
Versions: 1 2 3 4 5 6 7 8 9 10 11 12 13 14 15 16 17 18 19 20 21 22 23 24 25 26 27

000
ASUS45 KBOU 220507
RWRCO

WEATHER ROUNDUP FOR COLORADO
NATIONAL WEATHER SERVICE DENVER/BOULDER CO
1100 PM MDT WED JUN 21 2017

NOTE: "FAIR" INDICATES FEW OR NO CLOUDS BELOW 12000 FEET WITH NO
SIGNIFICANT WEATHER AND/OR OBSTRUCTIONS TO VISIBILITY.

COZ001>005-013-030-031-220600-
...NORTHWEST COLORADO...

CITY           SKY/WX    TMP DP  RH WIND       PRES   REMARKS
CRAIG          FAIR      57  50  77 CALM      30.07R
HAYDEN         FAIR      64  43  45 E9        30.10S
MEEKER         FAIR      61  43  51 NE5       30.08S
RABBIT EARS PA FAIR      57  32  38 SW6       30.43F
STEAMBOAT SPGS FAIR      59  43  55 CALM      30.13S
WALDEN         FAIR      54  43  66 SE7       30.23F
$$

COZ006>008-011-220600-
...WEST CENTRAL VALLEYS...

CITY           SKY/WX    TMP DP  RH WIND       PRES   REMARKS
GRAND JUNCTION FAIR      85  36  17 NE13      29.92R
MONTROSE       FAIR      75  35  23 SE9       30.05R
EAGLE          FAIR      68  40  35 E5        30.14S
RIFLE          FAIR      72  41  32 NE5       30.02R
DELTA          FAIR      84  34  16 SE5       29.98S
NUCLA          FAIR      75  32  20 E12       30.07R
$$

COZ017>023-064>068-220600-
...SOUTHWEST COLORADO...

CITY           SKY/WX    TMP DP  RH WIND       PRES   REMARKS
DURANGO        FAIR      65  35  33 CALM      30.09R
CORTEZ         FAIR      66  43  43 CALM      30.03S
PAGOSA SPRINGS FAIR      62  32  32 CALM      30.19S
TELLURIDE      FAIR      64  32  30 SE7       30.37S
WOLF CREEK PAS FAIR      55  28  35 NW6       30.62S
$$

COZ009-010-012-014-032>034-037-058>063-220600-
...CENTRAL COLORADO...

CITY           SKY/WX    TMP DP  RH WIND       PRES   REMARKS
ASPEN          FAIR      61  39  44 SW9       30.23R
BUENA VISTA    FAIR      65  29  26 NW10      30.24F
COPPER MTN     FAIR      54  28  37 W9        30.57F
BERTHOUD PASS  FAIR      46  34  61 NW26G37   30.57F
COTTONWOOD PAS FAIR      64  23  20 W9        30.40F
GUNNISON       FAIR      67  39  35 N5        30.22S
KREMMLING      NOT AVBL
LEADVILLE      FAIR      48  30  49 NE6       30.39S
MONARCH PASS   FAIR      55  27  33 NW8       30.69F
SALIDA         FAIR      68  32  26 SW6       30.27F
SUNLIGHT       FAIR      59  27  29 CALM      30.49F
WILKERSON PASS FAIR      55  27  33 W6        30.53F
$$

COZ069>075-220600-
...SAN LUIS VALLEY/SANGRE DE CRISTO MOUNTAINS...

CITY           SKY/WX    TMP DP  RH WIND       PRES   REMARKS
ALAMOSA        FAIR      58  45  62 E8        30.17R
DEL NORTE      FAIR      66  32  27 W7        30.22S
LA VETA PASS   FAIR      61  34  36 NE5       30.53R
SAGUACHE       FAIR      66  32  28 NW10      30.22S
$$

COZ035-036-038>040-220600-
...NORTHERN COLORADO FRONT RANGE...

CITY           SKY/WX    TMP DP  RH WIND       PRES   REMARKS
DENVER INTL AP FAIR      74  39  28 SW8       29.96S
DMNS CITY PARK   N/A     75  42  30 E3        29.96S
AURORA         MOCLDY    72  41  32 S9        29.98F
FRONT RANGE AP FAIR      79  37  22 SW9       29.97F
ERIE MUNI ARPT FAIR      78  36  22 W9        29.92F
BOULDER MUN AP FAIR      79  39  24 SE6       29.94S
CENTENNIAL     FAIR      71  40  32 S8        30.00F
BROOMFIELD     FAIR      77  37  24 W13       29.97F
FORT COLLINS   FAIR      77  38  24 S6        29.91F
LONGMONT       FAIR      82  35  18 SW8       29.93S
$$

COZ041-046-047-076>085-087-088-220600-
...PIKES PEAK/PALMER DIVIDE AND SOUTHERN FOOTHILLS...

CITY           SKY/WX    TMP DP  RH WIND       PRES   REMARKS
COLO. SPRINGS  FAIR      73  40  30 NW10      30.06F
A. F. ACADEMY  FAIR      63  45  53 N7        30.09F
SCHRIEVER AFB  NOT AVBL
CHEYENNE MTN   NOT AVBL
ELLICOTT       FAIR     N/A N/A N/A N3        30.04F
FALCON           N/A     64  36  34 W9        30.12F
FORT CARSON    FAIR      70  38  30 W5        30.02S
LIMON          FAIR      69  39  33 W10       29.97S
MONUMENT HILL  FAIR      64  36  34 SW8       30.15S
CANON CITY     CLEAR     73  43  33 W9        30.00S
WALSENBURG     FAIR      66  46  48 W8        30.05S
TRINIDAD       FAIR      66  44  45 W10       30.04R
$$

COZ042>045-048>051-090-091-220600-
...NORTHEAST COLORADO...

CITY           SKY/WX    TMP DP  RH WIND       PRES   REMARKS
GREELEY ARPT   FAIR      71  43  36 SW3       29.89S
AKRON          FAIR      75  41  29 SW8       29.90R
BURLINGTON     FAIR      74  51  44 S14       29.87R
WRAY           FAIR      75  46  35 CALM      29.80S
YUMA           NOT AVBL
STERLING       FAIR      70  48  46 S6        29.82F
HOLYOKE        NOT AVBL
FORT MORGAN    FAIR      69  38  32 W5        29.88F
$$

COZ086-089-092>099-220600-
...SOUTHEAST COLORADO...

CITY           SKY/WX    TMP DP  RH WIND       PRES   REMARKS
PUEBLO         FAIR      69  48  47 W5        29.92S
LA JUNTA       FAIR      76  51  41 W7        29.89R
LAMAR          FAIR      78  50  37 S20       29.83R
SPRINGFIELD      N/A     66  60  81 S17       29.96R
$$




USA.gov is the U.S. government's official web portal to all federal, state and local government web resources and services.